When you browse on this site, cookies collect data to enhance your experience and personalize the content and advertising you see.
Visit our Privacy Policy to learn more. By continuing to use the site, you agree to this use of cookies and data.
  • En España
  • Lista de países
  • Para 7 días
  • Temperatura del agua
  • Mapa Satelital
  • El tiempo en el mapa
  • Informadores
  • user-avatar
    Iniciar sesión

    Tiempo cada hora Akkol'

    Hoy, 19 Junio, Miércoles

    Tiempo Temperatura Precipitaciones Viento Presión Humedad
    00:00 +10°C° 0.1 mm 2 mps 720 mmHg 93%
    01:00 +11°C° 0.1 mm 1 mps 720 mmHg 93%
    02:00 +10°C° 0.1 mm 1 mps 720 mmHg 94%
    03:00 +10°C° 0 mm 1 mps 721 mmHg 94%
    04:00 +10°C° 0 mm 1 mps 721 mmHg 95%
    05:00 +10°C° 0 mm 1 mps 721 mmHg 95%
    06:00 +12°C° 0 mm 1 mps 722 mmHg 90%
    07:00 +13°C° 0 mm 2 mps 722 mmHg 85%
    08:00 +14°C° 0 mm 2 mps 723 mmHg 80%
    09:00 +15°C° 0.3 mm 2 mps 723 mmHg 75%
    10:00 +16°C° 0.3 mm 3 mps 723 mmHg 70%
    11:00 +17°C° 0.3 mm 3 mps 724 mmHg 66%
    12:00 +17°C° 0.3 mm 3 mps 724 mmHg 65%
    13:00 +18°C° 0.3 mm 4 mps 724 mmHg 64%
    14:00 +18°C° 0.3 mm 4 mps 724 mmHg 63%
    15:00 +18°C° 0.2 mm 4 mps 724 mmHg 63%
    16:00 +18°C° 0.2 mm 4 mps 725 mmHg 62%
    17:00 +18°C° 0.2 mm 4 mps 725 mmHg 61%
    18:00 +17°C° 0 mm 4 mps 725 mmHg 65%
    19:00 +16°C° 0 mm 3 mps 725 mmHg 68%
    20:00 +14°C° 0 mm 3 mps 725 mmHg 71%
    21:00 +14°C° 0 mm 2 mps 726 mmHg 72%
    22:00 +13°C° 0 mm 2 mps 726 mmHg 73%
    23:00 +12°C° 0 mm 1 mps 726 mmHg 74%

    Mañana, 20 Junio, Jueves

    Tiempo Temperatura Precipitaciones Viento Presión Humedad
    00:00 +11°C° 0 mm 1 mps 726 mmHg 75%
    01:00 +11°C° 0 mm 1 mps 726 mmHg 76%
    02:00 +10°C° 0 mm 1 mps 726 mmHg 77%
    03:00 +11°C° 0 mm 1 mps 726 mmHg 77%
    04:00 +11°C° 0 mm 1 mps 727 mmHg 77%
    05:00 +11°C° 0 mm 1 mps 727 mmHg 77%
    06:00 +13°C° 0 mm 1 mps 727 mmHg 71%
    07:00 +14°C° 0 mm 1 mps 728 mmHg 65%
    08:00 +16°C° 0 mm 1 mps 728 mmHg 59%
    09:00 +18°C° 0 mm 1 mps 728 mmHg 55%
    10:00 +19°C° 0 mm 1 mps 728 mmHg 50%
    11:00 +21°C° 0 mm 1 mps 728 mmHg 45%
    12:00 +21°C° 0 mm 1 mps 728 mmHg 42%
    13:00 +22°C° 0 mm 1 mps 728 mmHg 40%
    14:00 +23°C° 0 mm 1 mps 728 mmHg 38%
    15:00 +23°C° 0 mm 1 mps 728 mmHg 37%
    16:00 +23°C° 0 mm 1 mps 728 mmHg 37%
    17:00 +23°C° 0 mm 1 mps 727 mmHg 37%
    18:00 +22°C° 0 mm 1 mps 727 mmHg 42%
    19:00 +20°C° 0 mm 1 mps 727 mmHg 47%
    20:00 +19°C° 0 mm 1 mps 727 mmHg 52%
    21:00 +16°C° 0 mm 0 mps 727 mmHg 52%
    22:00 +15°C° 0 mm 0 mps 727 mmHg 52%
    23:00 +14°C° 0 mm 0 mps 727 mmHg 52%

    Pasado mañana, 21 Junio, Viernes

    Tiempo Temperatura Precipitaciones Viento Presión Humedad
    00:00 +14°C° 0 mm 0 mps 727 mmHg 53%
    01:00 +14°C° 0 mm 0 mps 727 mmHg 54%
    02:00 +13°C° 0 mm 0 mps 727 mmHg 54%
    03:00 +13°C° 0 mm 0 mps 727 mmHg 56%
    04:00 +13°C° 0 mm 0 mps 727 mmHg 58%
    05:00 +13°C° 0 mm 0 mps 727 mmHg 60%
    06:00 +15°C° 0 mm 0 mps 727 mmHg 55%
    07:00 +17°C° 0 mm 0 mps 727 mmHg 51%
    08:00 +19°C° 0 mm 0 mps 727 mmHg 46%
    09:00 +20°C° 0 mm 0 mps 727 mmHg 44%
    10:00 +23°C° 0 mm 1 mps 727 mmHg 42%
    11:00 +24°C° 0 mm 1 mps 727 mmHg 40%
    12:00 +25°C° 0 mm 1 mps 726 mmHg 39%
    13:00 +25°C° 0 mm 1 mps 726 mmHg 37%
    14:00 +26°C° 0 mm 1 mps 726 mmHg 35%
    15:00 +26°C° 0 mm 2 mps 726 mmHg 36%
    16:00 +26°C° 0 mm 2 mps 725 mmHg 36%
    17:00 +26°C° 0 mm 2 mps 725 mmHg 37%
    18:00 +25°C° 0 mm 2 mps 724 mmHg 43%
    19:00 +23°C° 0 mm 1 mps 724 mmHg 49%
    20:00 +22°C° 0 mm 1 mps 724 mmHg 55%
    21:00 +21°C° 0 mm 1 mps 724 mmHg 56%
    22:00 +20°C° 0 mm 1 mps 724 mmHg 58%
    23:00 +19°C° 0 mm 1 mps 724 mmHg 59%

    22 Junio, Sábado

    Tiempo Temperatura Precipitaciones Viento Presión Humedad
    00:00 +18°C° 0 mm 2 mps 724 mmHg 63%
    01:00 +17°C° 0 mm 2 mps 724 mmHg 67%
    02:00 +17°C° 0 mm 3 mps 724 mmHg 71%
    03:00 +16°C° 0 mm 3 mps 724 mmHg 77%
    04:00 +16°C° 0 mm 3 mps 724 mmHg 83%
    05:00 +14°C° 0 mm 4 mps 724 mmHg 88%
    06:00 +17°C° 0 mm 4 mps 724 mmHg 80%
    07:00 +17°C° 0 mm 5 mps 725 mmHg 71%
    08:00 +19°C° 0 mm 5 mps 725 mmHg 63%
    09:00 +20°C° 0 mm 6 mps 726 mmHg 57%
    10:00 +21°C° 0 mm 6 mps 726 mmHg 52%
    11:00 +22°C° 0 mm 6 mps 726 mmHg 46%
    12:00 +22°C° 0 mm 7 mps 726 mmHg 45%
    13:00 +22°C° 0 mm 7 mps 726 mmHg 44%
    14:00 +22°C° 0 mm 7 mps 727 mmHg 43%
    15:00 +21°C° 0 mm 7 mps 727 mmHg 44%
    16:00 +20°C° 0 mm 7 mps 727 mmHg 45%
    17:00 +18°C° 0 mm 7 mps 727 mmHg 47%
    18:00 +17°C° 0 mm 6 mps 728 mmHg 51%
    19:00 +15°C° 0 mm 5 mps 728 mmHg 55%
    20:00 +14°C° 0 mm 4 mps 728 mmHg 59%
    21:00 +13°C° 0 mm 4 mps 728 mmHg 62%
    22:00 +12°C° 0 mm 3 mps 729 mmHg 65%
    23:00 +10°C° 0 mm 2 mps 729 mmHg 68%

    23 Junio, Domingo

    Tiempo Temperatura Precipitaciones Viento Presión Humedad
    00:00 +10°C° 0 mm 2 mps 729 mmHg 70%
    01:00 +10°C° 0 mm 2 mps 729 mmHg 72%
    02:00 +10°C° 0 mm 2 mps 729 mmHg 74%
    03:00 +9°C° 0 mm 2 mps 729 mmHg 77%
    04:00 +9°C° 0 mm 3 mps 729 mmHg 80%
    05:00 +9°C° 0 mm 3 mps 729 mmHg 82%
    06:00 +11°C° 0 mm 3 mps 730 mmHg 72%
    07:00 +12°C° 0 mm 3 mps 730 mmHg 62%
    08:00 +14°C° 0 mm 4 mps 730 mmHg 52%
    09:00 +14°C° 0.1 mm 3 mps 730 mmHg 53%
    10:00 +14°C° 0.1 mm 3 mps 730 mmHg 53%
    11:00 +14°C° 0.1 mm 3 mps 730 mmHg 54%
    12:00 +13°C° 0.5 mm 3 mps 729 mmHg 62%
    13:00 +12°C° 0.5 mm 3 mps 729 mmHg 70%
    14:00 +11°C° 0.5 mm 4 mps 729 mmHg 78%
    15:00 +12°C° 0.1 mm 4 mps 728 mmHg 77%
    16:00 +12°C° 0.1 mm 4 mps 728 mmHg 77%
    17:00 +12°C° 0.1 mm 5 mps 728 mmHg 77%
    18:00 +13°C° 0 mm 4 mps 727 mmHg 76%
    19:00 +14°C° 0 mm 3 mps 727 mmHg 76%
    20:00 +15°C° 0 mm 2 mps 727 mmHg 75%
    21:00 +15°C° 0 mm 2 mps 727 mmHg 78%
    22:00 +15°C° 0 mm 2 mps 726 mmHg 80%
    23:00 +15°C° 0 mm 2 mps 726 mmHg 83%

    24 Junio, Lunes

    Tiempo Temperatura Precipitaciones Viento Presión Humedad
    00:00 +15°C° 0.2 mm 2 mps 726 mmHg 85%
    01:00 +15°C° 0.2 mm 2 mps 726 mmHg 88%
    02:00 +14°C° 0.2 mm 3 mps 725 mmHg 90%
    03:00 +14°C° 0.1 mm 3 mps 725 mmHg 91%
    04:00 +16°C° 0.1 mm 3 mps 725 mmHg 91%
    05:00 +16°C° 0.1 mm 3 mps 725 mmHg 92%
    06:00 +16°C° 1 mm 3 mps 725 mmHg 93%
    07:00 +16°C° 1 mm 3 mps 725 mmHg 94%
    08:00 +17°C° 1 mm 3 mps 725 mmHg 95%
    09:00 +17°C° 2.3 mm 3 mps 726 mmHg 95%
    10:00 +17°C° 2.3 mm 3 mps 726 mmHg 95%
    11:00 +17°C° 2.3 mm 3 mps 726 mmHg 95%
    12:00 +19°C° 0.1 mm 3 mps 726 mmHg 91%
    13:00 +20°C° 0.1 mm 3 mps 726 mmHg 87%
    14:00 +21°C° 0.1 mm 3 mps 726 mmHg 83%
    15:00 +23°C° 0 mm 2 mps 726 mmHg 78%
    16:00 +24°C° 0 mm 2 mps 726 mmHg 74%
    17:00 +25°C° 0 mm 2 mps 726 mmHg 70%
    18:00 +24°C° 0 mm 2 mps 725 mmHg 74%
    19:00 +23°C° 0 mm 1 mps 725 mmHg 79%
    20:00 +22°C° 0 mm 1 mps 725 mmHg 83%
    21:00 +21°C° 0 mm 1 mps 725 mmHg 86%
    22:00 +20°C° 0 mm 2 mps 725 mmHg 89%
    23:00 +19°C° 0 mm 2 mps 725 mmHg 91%
    Mostrar más